Menu Close Menu
Station Historical Data
Daily Summary for September 25, 2017 Units:  English    Metric   Both
« Previous Day
Next Day »
Daily Weekly Monthly Yearly Custom
  High: Low: Average:
Temperature: 86.5 °F 64.4 °F 73 °F
Dew Point: 65.0 °F 59.3 °F 62.7 °F
Humidity: 92% 42% 73%
Wind Speed: 8.0mph 1.0mph 3.9mph
Wind Gust: 8.0mph - -
Wind- - East
Pressure: 30.05 in 29.93 in -
Precipitation: 0.00 in    
Historical Graphs
 
 
Tabular Data for September 25, 2017
Time Temperature Dew Point Pressure Wind Wind Speed Wind Gust Humidity Rainfall Rate (Hourly) solar Conditions
00:00 67.7 °F 63.7 °F 30.02 in North 3.0 mph 3.0 mph 87% 0.00 in WeatherDisplay:10.37 W/m2 CLR
00:05 67.6 °F 63.6 °F 30.02 in North 3.0 mph 3.0 mph 87% 0.00 in WeatherDisplay:10.37 W/m2 CLR
00:10 67.6 °F 63.6 °F 30.02 in North 3.0 mph 3.0 mph 87% 0.00 in WeatherDisplay:10.37 W/m2 CLR
00:15 67.5 °F 63.5 °F 30.02 in North 3.0 mph 3.0 mph 87% 0.00 in WeatherDisplay:10.37 W/m2 FEW
00:20 67.4 °F 63.7 °F 30.01 in North 3.0 mph 3.0 mph 88% 0.00 in WeatherDisplay:10.37 W/m2 FEW
00:25 67.4 °F 63.7 °F 30.01 in North 3.0 mph 3.0 mph 88% 0.00 in WeatherDisplay:10.37 W/m2 FEW
00:30 67.3 °F 63.6 °F 30.01 in North 3.0 mph 3.0 mph 88% 0.00 in WeatherDisplay:10.37 W/m2 FEW
00:40 67.3 °F 63.6 °F 30.01 in North 3.0 mph 3.0 mph 88% 0.00 in WeatherDisplay:10.37 W/m2 FEW
00:45 67.2 °F 63.5 °F 30.01 in North 3.0 mph 3.0 mph 88% 0.00 in WeatherDisplay:10.37 W/m2 FEW
00:50 67.2 °F 63.5 °F 30.00 in North 3.0 mph 3.0 mph 88% 0.00 in WeatherDisplay:10.37 W/m2 FEW
00:55 67.1 °F 63.7 °F 30.00 in North 3.0 mph 3.0 mph 89% 0.00 in WeatherDisplay:10.37 W/m2 FEW
01:00 67.0 °F 63.3 °F 30.00 in North 3.0 mph 3.0 mph 88% 0.00 in WeatherDisplay:10.37 W/m2 FEW
01:10 66.9 °F 63.2 °F 30.00 in North 3.0 mph 3.0 mph 88% 0.00 in WeatherDisplay:10.37 W/m2 FEW
01:15 66.8 °F 63.5 °F 30.00 in NE 3.0 mph 3.0 mph 89% 0.00 in WeatherDisplay:10.37 W/m2 FEW
01:20 66.7 °F 63.4 °F 30.00 in East 3.0 mph 3.0 mph 89% 0.00 in WeatherDisplay:10.37 W/m2 FEW
01:25 66.7 °F 63.4 °F 30.00 in East 3.0 mph 3.0 mph 89% 0.00 in WeatherDisplay:10.37 W/m2 FEW
01:30 66.6 °F 63.3 °F 30.00 in East 3.0 mph 3.0 mph 89% 0.00 in WeatherDisplay:10.37 W/m2 FEW
01:35 66.6 °F 63.3 °F 30.00 in East 3.0 mph 3.0 mph 89% 0.00 in WeatherDisplay:10.37 W/m2 FEW
01:40 66.6 °F 63.3 °F 30.00 in East 3.0 mph 3.0 mph 89% 0.00 in WeatherDisplay:10.37 W/m2 FEW
01:45 66.6 °F 63.3 °F 30.00 in East 3.0 mph 3.0 mph 89% 0.00 in WeatherDisplay:10.37 W/m2 FEW
01:50 66.5 °F 63.2 °F 30.00 in East 3.0 mph 3.0 mph 89% 0.00 in WeatherDisplay:10.37 W/m2 FEW
01:55 66.6 °F 63.3 °F 30.00 in East 3.0 mph 3.0 mph 89% 0.00 in WeatherDisplay:10.37 W/m2 FEW
02:00 66.6 °F 63.3 °F 30.00 in East 3.0 mph 3.0 mph 89% 0.00 in WeatherDisplay:10.37 W/m2 FEW
02:05 66.5 °F 63.2 °F 30.00 in East 3.0 mph 3.0 mph 89% 0.00 in WeatherDisplay:10.37 W/m2 FEW
02:10 66.5 °F 63.2 °F 30.00 in East 3.0 mph 3.0 mph 89% 0.00 in WeatherDisplay:10.37 W/m2 FEW
02:15 66.4 °F 63.1 °F 30.00 in East 1.0 mph 3.0 mph 89% 0.00 in WeatherDisplay:10.37 W/m2 FEW
02:20 66.3 °F 63.0 °F 30.00 in ENE 1.0 mph 1.0 mph 89% 0.00 in WeatherDisplay:10.37 W/m2 FEW
02:25 66.2 °F 62.9 °F 30.00 in ENE 1.0 mph 1.0 mph 89% 0.00 in WeatherDisplay:10.37 W/m2 FEW
02:30 66.2 °F 62.9 °F 30.01 in ENE 1.0 mph 1.0 mph 89% 0.00 in WeatherDisplay:10.37 W/m2 FEW
02:35 66.1 °F 63.1 °F 30.00 in ENE 1.0 mph 1.0 mph 90% 0.00 in WeatherDisplay:10.37 W/m2 FEW
02:40 66.1 °F 63.1 °F 30.01 in ENE 1.0 mph 1.0 mph 90% 0.00 in WeatherDisplay:10.37 W/m2 FEW
02:45 66.0 °F 63.0 °F 30.00 in ENE 1.0 mph 1.0 mph 90% 0.00 in WeatherDisplay:10.37 W/m2 FEW
02:50 66.0 °F 63.0 °F 30.00 in ENE 1.0 mph 1.0 mph 90% 0.00 in WeatherDisplay:10.37 W/m2 FEW
02:55 66.0 °F 63.0 °F 30.00 in ENE 1.0 mph 1.0 mph 90% 0.00 in WeatherDisplay:10.37 W/m2 FEW
03:00 66.1 °F 63.1 °F 30.00 in ENE 1.0 mph 1.0 mph 90% 0.00 in WeatherDisplay:10.37 W/m2 FEW
03:05 66.1 °F 63.1 °F 30.01 in ENE 1.0 mph 1.0 mph 90% 0.00 in WeatherDisplay:10.37 W/m2 FEW
03:10 66.0 °F 63.0 °F 30.01 in ENE 1.0 mph 1.0 mph 90% 0.00 in WeatherDisplay:10.37 W/m2 FEW
03:15 65.9 °F 62.9 °F 30.01 in NNW 2.0 mph 2.0 mph 90% 0.00 in WeatherDisplay:10.37 W/m2 SCT
03:20 65.9 °F 62.9 °F 30.01 in NW 2.0 mph 2.0 mph 90% 0.00 in WeatherDisplay:10.37 W/m2 SCT
03:25 65.8 °F 62.8 °F 30.01 in NW 2.0 mph 2.0 mph 90% 0.00 in WeatherDisplay:10.37 W/m2 SCT
03:30 65.8 °F 62.8 °F 30.01 in NW 2.0 mph 2.0 mph 90% 0.00 in WeatherDisplay:10.37 W/m2 SCT
03:35 65.8 °F 62.8 °F 30.01 in NW 2.0 mph 2.0 mph 90% 0.00 in WeatherDisplay:10.37 W/m2 SCT
03:40 65.7 °F 62.7 °F 30.01 in NW 2.0 mph 2.0 mph 90% 0.00 in WeatherDisplay:10.37 W/m2 SCT
03:45 65.7 °F 62.7 °F 30.01 in NW 2.0 mph 2.0 mph 90% 0.00 in WeatherDisplay:10.37 W/m2 SCT
03:50 65.7 °F 62.7 °F 30.01 in NW 2.0 mph 2.0 mph 90% 0.00 in WeatherDisplay:10.37 W/m2 SCT
03:55 65.7 °F 62.7 °F 30.01 in NW 2.0 mph 2.0 mph 90% 0.00 in WeatherDisplay:10.37 W/m2 SCT
04:00 65.6 °F 62.6 °F 30.01 in NW 2.0 mph 2.0 mph 90% 0.00 in WeatherDisplay:10.37 W/m2 SCT
04:10 65.6 °F 62.9 °F 30.01 in NW 2.0 mph 2.0 mph 91% 0.00 in WeatherDisplay:10.37 W/m2 SCT
04:15 65.7 °F 63.0 °F 30.01 in NNE 3.0 mph 3.0 mph 91% 0.00 in WeatherDisplay:10.37 W/m2 SCT
04:20 65.7 °F 63.0 °F 30.01 in NE 3.0 mph 3.0 mph 91% 0.00 in WeatherDisplay:10.37 W/m2 SCT
04:25 65.7 °F 63.0 °F 30.01 in NE 3.0 mph 3.0 mph 91% 0.00 in WeatherDisplay:10.37 W/m2 SCT
04:30 65.6 °F 62.9 °F 30.01 in NE 3.0 mph 3.0 mph 91% 0.00 in WeatherDisplay:10.37 W/m2 SCT
04:35 65.8 °F 63.1 °F 30.01 in NE 3.0 mph 3.0 mph 91% 0.00 in WeatherDisplay:10.37 W/m2 SCT
04:40 65.8 °F 63.1 °F 30.01 in NE 3.0 mph 3.0 mph 91% 0.00 in WeatherDisplay:10.37 W/m2 SCT
04:45 65.9 °F 63.2 °F 30.01 in NE 3.0 mph 3.0 mph 91% 0.00 in WeatherDisplay:10.37 W/m2 SCT
04:50 65.9 °F 62.9 °F 30.01 in NE 3.0 mph 3.0 mph 90% 0.00 in WeatherDisplay:10.37 W/m2 SCT
04:55 65.9 °F 62.9 °F 30.01 in NE 3.0 mph 3.0 mph 90% 0.00 in WeatherDisplay:10.37 W/m2 SCT
05:00 65.9 °F 62.9 °F 30.01 in NE 3.0 mph 3.0 mph 90% 0.00 in WeatherDisplay:10.37 W/m2 SCT
05:05 65.8 °F 62.8 °F 30.01 in NE 3.0 mph 3.0 mph 90% 0.00 in WeatherDisplay:10.37 W/m2 SCT
05:10 65.8 °F 62.8 °F 30.01 in NE 3.0 mph 3.0 mph 90% 0.00 in WeatherDisplay:10.37 W/m2 SCT
05:15 65.8 °F 62.8 °F 30.01 in NNE 3.0 mph 3.0 mph 90% 0.00 in WeatherDisplay:10.37 W/m2 BKN
05:20 65.8 °F 62.8 °F 30.01 in NNE 3.0 mph 3.0 mph 90% 0.00 in WeatherDisplay:10.37 W/m2 BKN
05:25 65.8 °F 62.8 °F 30.01 in NNE 3.0 mph 3.0 mph 90% 0.00 in WeatherDisplay:10.37 W/m2 BKN
05:30 65.9 °F 62.9 °F 30.01 in NNE 3.0 mph 3.0 mph 90% 0.00 in WeatherDisplay:10.37 W/m2 BKN
05:40 66.0 °F 63.0 °F 30.01 in NNE 3.0 mph 3.0 mph 90% 0.00 in WeatherDisplay:10.37 W/m2 BKN
05:45 66.1 °F 63.1 °F 30.01 in NNE 3.0 mph 3.0 mph 90% 0.00 in WeatherDisplay:10.37 W/m2 BKN
05:50 66.1 °F 63.1 °F 30.01 in NNE 3.0 mph 3.0 mph 90% 0.00 in WeatherDisplay:10.37 W/m2 BKN
05:55 66.1 °F 63.1 °F 30.01 in NNE 3.0 mph 3.0 mph 90% 0.00 in WeatherDisplay:10.37 W/m2 BKN
06:00 66.1 °F 63.1 °F 30.01 in NNE 3.0 mph 3.0 mph 90% 0.00 in WeatherDisplay:10.37 W/m2 BKN
06:05 66.1 °F 63.1 °F 30.01 in NNE 3.0 mph 3.0 mph 90% 0.00 in WeatherDisplay:10.37 W/m2 BKN
06:10 66.0 °F 63.0 °F 30.01 in NNE 3.0 mph 3.0 mph 90% 0.00 in WeatherDisplay:10.37 W/m2 BKN
06:15 65.9 °F 62.9 °F 30.01 in NNE 3.0 mph 3.0 mph 90% 0.00 in WeatherDisplay:10.37 W/m2 SCT
06:20 65.8 °F 62.8 °F 30.01 in NNE 3.0 mph 3.0 mph 90% 0.00 in WeatherDisplay:10.37 W/m2 SCT
06:25 65.7 °F 62.7 °F 30.02 in NNE 3.0 mph 3.0 mph 90% 0.00 in WeatherDisplay:10.37 W/m2 SCT
06:30 65.6 °F 62.6 °F 30.01 in NNE 3.0 mph 3.0 mph 90% 0.00 in WeatherDisplay:10.37 W/m2 SCT
06:40 65.4 °F 62.4 °F 30.01 in NNE 3.0 mph 3.0 mph 90% 0.00 in WeatherDisplay:10.37 W/m2 SCT
06:45 65.3 °F 62.3 °F 30.01 in NNE 3.0 mph 3.0 mph 90% 0.00 in WeatherDisplay:10.37 W/m2 SCT
06:50 65.2 °F 62.5 °F 30.01 in NNE 3.0 mph 3.0 mph 91% 0.00 in WeatherDisplay:10.37 W/m2 SCT
06:55 65.1 °F 62.4 °F 30.02 in NNE 3.0 mph 3.0 mph 91% 0.00 in WeatherDisplay:10.37 W/m2 SCT
07:00 65.1 °F 62.4 °F 30.02 in NNE 3.0 mph 3.0 mph 91% 0.00 in WeatherDisplay:10.37 W/m2 SCT
07:05 65.0 °F 62.3 °F 30.02 in NNE 3.0 mph 3.0 mph 91% 0.00 in WeatherDisplay:10.37 W/m2 SCT
07:10 65.0 °F 62.3 °F 30.02 in NNE 3.0 mph 3.0 mph 91% 0.00 in WeatherDisplay:10.37 W/m2 SCT
07:15 65.0 °F 62.3 °F 30.02 in NNE 3.0 mph 3.0 mph 91% 0.00 in WeatherDisplay:10.37 W/m2 SCT
07:20 64.9 °F 62.2 °F 30.02 in NNE 3.0 mph 3.0 mph 91% 0.00 in WeatherDisplay:10.37 W/m2 SCT
07:25 64.9 °F 62.2 °F 30.02 in NNE 3.0 mph 3.0 mph 91% 0.00 in WeatherDisplay:10.37 W/m2 SCT
07:30 64.8 °F 62.1 °F 30.03 in NNE 3.0 mph 3.0 mph 91% 0.00 in WeatherDisplay:10.37 W/m2 SCT
07:35 64.7 °F 62.0 °F 30.02 in NNE 3.0 mph 3.0 mph 91% 0.00 in WeatherDisplay:10.37 W/m2 SCT
07:40 64.6 °F 61.9 °F 30.03 in NNE 3.0 mph 3.0 mph 91% 0.00 in WeatherDisplay:10.37 W/m2 SCT
07:45 64.6 °F 61.9 °F 30.03 in NNE 3.0 mph 3.0 mph 91% 0.00 in WeatherDisplay:10.37 W/m2 SCT
07:50 64.5 °F 61.8 °F 30.03 in NNE 3.0 mph 3.0 mph 91% 0.00 in WeatherDisplay:10.37 W/m2 SCT
07:55 64.5 °F 62.1 °F 30.03 in NNE 3.0 mph 3.0 mph 92% 0.00 in WeatherDisplay:10.37 W/m2 SCT
08:00 64.5 °F 62.1 °F 30.03 in NNE 3.0 mph 3.0 mph 92% 0.00 in WeatherDisplay:10.37 W/m2 SCT
08:05 64.4 °F 62.0 °F 30.03 in NNE 3.0 mph 3.0 mph 92% 0.00 in WeatherDisplay:10.37 W/m2 SCT
08:10 64.4 °F 62.0 °F 30.03 in NNE 3.0 mph 3.0 mph 92% 0.00 in WeatherDisplay:10.37 W/m2 SCT
08:15 64.4 °F 62.0 °F 30.03 in NNE 3.0 mph 3.0 mph 92% 0.00 in WeatherDisplay:10.37 W/m2 SCT
08:20 64.5 °F 62.1 °F 30.03 in NNE 3.0 mph 3.0 mph 92% 0.00 in WeatherDisplay:10.37 W/m2 SCT
08:25 64.7 °F 62.3 °F 30.03 in NNE 3.0 mph 3.0 mph 92% 0.00 in WeatherDisplay:10.37 W/m2 SCT
08:30 64.8 °F 62.4 °F 30.04 in NNE 3.0 mph 3.0 mph 92% 0.00 in WeatherDisplay:10.37 W/m2 SCT
08:35 64.9 °F 62.5 °F 30.04 in NNE 3.0 mph 3.0 mph 92% 0.00 in WeatherDisplay:10.37 W/m2 SCT
08:40 65.0 °F 62.6 °F 30.04 in NNE 3.0 mph 3.0 mph 92% 0.00 in WeatherDisplay:10.37 W/m2 SCT
08:45 65.2 °F 62.8 °F 30.04 in NNE 3.0 mph 3.0 mph 92% 0.00 in WeatherDisplay:10.37 W/m2 SCT
08:50 65.4 °F 63.0 °F 30.04 in NNE 3.0 mph 3.0 mph 92% 0.00 in WeatherDisplay:10.37 W/m2 SCT
09:00 65.7 °F 63.3 °F 30.04 in NNE 3.0 mph 3.0 mph 92% 0.00 in WeatherDisplay:10.37 W/m2 SCT
09:05 66.0 °F 63.6 °F 30.04 in NNE 3.0 mph 3.0 mph 92% 0.00 in WeatherDisplay:10.37 W/m2 SCT
09:10 66.4 °F 63.7 °F 30.04 in NNE 3.0 mph 3.0 mph 91% 0.00 in WeatherDisplay:10.37 W/m2 SCT
09:15 66.8 °F 63.8 °F 30.04 in ENE 3.0 mph 3.0 mph 90% 0.00 in WeatherDisplay:10.37 W/m2 SCT
09:20 67.3 °F 64.0 °F 30.04 in East 3.0 mph 3.0 mph 89% 0.00 in WeatherDisplay:10.37 W/m2 SCT
09:25 67.7 °F 63.7 °F 30.04 in East 3.0 mph 3.0 mph 87% 0.00 in WeatherDisplay:10.37 W/m2 SCT
09:30 67.9 °F 63.6 °F 30.04 in East 3.0 mph 3.0 mph 86% 0.00 in WeatherDisplay:10.37 W/m2 SCT
09:40 68.2 °F 63.5 °F 30.04 in East 3.0 mph 3.0 mph 85% 0.00 in WeatherDisplay:10.37 W/m2 SCT
09:45 68.4 °F 63.7 °F 30.04 in East 3.0 mph 3.0 mph 85% 0.00 in WeatherDisplay:10.37 W/m2 SCT
09:50 69.1 °F 64.0 °F 30.04 in NNE 3.0 mph 3.0 mph 84% 0.00 in WeatherDisplay:10.37 W/m2 SCT
09:55 69.8 °F 64.4 °F 30.04 in NNW 3.0 mph 3.0 mph 83% 0.00 in WeatherDisplay:10.37 W/m2 SCT
10:00 70.7 °F 64.6 °F 30.05 in NNW 3.0 mph 3.0 mph 81% 0.00 in WeatherDisplay:10.37 W/m2 SCT
10:05 71.6 °F 64.3 °F 30.05 in NW 3.0 mph 3.0 mph 78% 0.00 in WeatherDisplay:10.37 W/m2 SCT
10:10 72.3 °F 64.3 °F 30.05 in WNW 3.0 mph 3.0 mph 76% 0.00 in WeatherDisplay:10.37 W/m2 SCT
10:15 72.8 °F 64.8 °F 30.05 in East 7.0 mph 7.0 mph 76% 0.00 in WeatherDisplay:10.37 W/m2 SCT
10:20 73.3 °F 64.9 °F 30.05 in East 7.0 mph 7.0 mph 75% 0.00 in WeatherDisplay:10.37 W/m2 SCT
10:25 73.8 °F 64.2 °F 30.05 in East 7.0 mph 7.0 mph 72% 0.00 in WeatherDisplay:10.37 W/m2 SCT
10:30 74.2 °F 64.6 °F 30.05 in East 7.0 mph 7.0 mph 72% 0.00 in WeatherDisplay:10.37 W/m2 SCT
10:40 75.0 °F 63.7 °F 30.05 in East 7.0 mph 7.0 mph 68% 0.00 in WeatherDisplay:10.37 W/m2 SCT
10:45 75.8 °F 64.4 °F 30.05 in East 7.0 mph 7.0 mph 68% 0.00 in WeatherDisplay:10.37 W/m2 SCT
10:50 76.8 °F 65.0 °F 30.05 in East 7.0 mph 7.0 mph 67% 0.00 in WeatherDisplay:10.37 W/m2 SCT
10:55 77.5 °F 64.8 °F 30.05 in East 7.0 mph 7.0 mph 65% 0.00 in WeatherDisplay:10.37 W/m2 SCT
11:00 78.0 °F 63.9 °F 30.05 in East 7.0 mph 7.0 mph 62% 0.00 in WeatherDisplay:10.37 W/m2 SCT
11:05 78.4 °F 64.8 °F 30.04 in East 7.0 mph 7.0 mph 63% 0.00 in WeatherDisplay:10.37 W/m2 SCT
11:10 78.8 °F 64.2 °F 30.04 in East 7.0 mph 7.0 mph 61% 0.00 in WeatherDisplay:10.37 W/m2 SCT
11:15 79.2 °F 64.1 °F 30.04 in East 7.0 mph 7.0 mph 60% 0.00 in WeatherDisplay:10.37 W/m2 FEW
11:20 79.4 °F 63.4 °F 30.05 in East 7.0 mph 7.0 mph 58% 0.00 in WeatherDisplay:10.37 W/m2 FEW
11:25 80.0 °F 63.9 °F 30.04 in East 7.0 mph 7.0 mph 58% 0.00 in WeatherDisplay:10.37 W/m2 FEW
11:30 80.4 °F 63.8 °F 30.05 in East 7.0 mph 7.0 mph 57% 0.00 in WeatherDisplay:10.37 W/m2 FEW
11:40 81.5 °F 63.3 °F 30.04 in East 7.0 mph 7.0 mph 54% 0.00 in WeatherDisplay:10.37 W/m2 FEW
11:45 81.5 °F 62.7 °F 30.05 in East 7.0 mph 7.0 mph 53% 0.00 in WeatherDisplay:10.37 W/m2 FEW
11:50 81.6 °F 62.8 °F 30.04 in East 7.0 mph 7.0 mph 53% 0.00 in WeatherDisplay:10.37 W/m2 FEW
11:55 81.9 °F 63.6 °F 30.04 in East 7.0 mph 7.0 mph 54% 0.00 in WeatherDisplay:10.37 W/m2 FEW
12:00 82.5 °F 63.6 °F 30.04 in East 7.0 mph 7.0 mph 53% 0.00 in WeatherDisplay:10.37 W/m2 FEW
12:10 83.1 °F 64.2 °F 30.04 in East 7.0 mph 7.0 mph 53% 0.00 in WeatherDisplay:10.37 W/m2 FEW
12:15 83.5 °F 64.0 °F 30.04 in East 7.0 mph 7.0 mph 52% 0.00 in WeatherDisplay:10.37 W/m2 FEW
12:20 83.3 °F 62.7 °F 30.04 in East 7.0 mph 7.0 mph 50% 0.00 in WeatherDisplay:10.37 W/m2 FEW
12:25 83.6 °F 63.0 °F 30.04 in East 7.0 mph 7.0 mph 50% 0.00 in WeatherDisplay:10.37 W/m2 FEW
12:30 83.4 °F 63.4 °F 30.04 in East 7.0 mph 7.0 mph 51% 0.00 in WeatherDisplay:10.37 W/m2 FEW
12:35 83.6 °F 63.6 °F 30.04 in East 7.0 mph 7.0 mph 51% 0.00 in WeatherDisplay:10.37 W/m2 FEW
12:40 84.0 °F 63.3 °F 30.03 in East 7.0 mph 7.0 mph 50% 0.00 in WeatherDisplay:10.37 W/m2 FEW
12:45 84.2 °F 62.4 °F 30.03 in East 7.0 mph 7.0 mph 48% 0.00 in WeatherDisplay:10.37 W/m2 FEW
12:50 84.4 °F 62.0 °F 30.03 in East 7.0 mph 7.0 mph 47% 0.00 in WeatherDisplay:10.37 W/m2 FEW
12:55 84.5 °F 62.7 °F 30.03 in East 7.0 mph 7.0 mph 48% 0.00 in WeatherDisplay:10.37 W/m2 FEW
13:00 84.5 °F 62.1 °F 30.03 in East 7.0 mph 7.0 mph 47% 0.00 in WeatherDisplay:10.37 W/m2 FEW
13:05 84.2 °F 62.3 °F 30.03 in East 7.0 mph 7.0 mph 48% 0.00 in WeatherDisplay:10.37 W/m2 FEW
13:10 83.7 °F 62.0 °F 30.02 in East 7.0 mph 7.0 mph 48% 0.00 in WeatherDisplay:10.37 W/m2 FEW
13:20 83.0 °F 61.9 °F 30.02 in East 6.0 mph 6.0 mph 49% 0.00 in WeatherDisplay:10.37 W/m2 FEW
13:25 82.9 °F 61.8 °F 30.02 in East 6.0 mph 6.0 mph 49% 0.00 in WeatherDisplay:10.37 W/m2 FEW
13:30 82.9 °F 61.2 °F 30.02 in East 6.0 mph 6.0 mph 48% 0.00 in WeatherDisplay:10.37 W/m2 FEW
13:35 82.9 °F 62.4 °F 30.02 in East 6.0 mph 6.0 mph 50% 0.00 in WeatherDisplay:10.37 W/m2 FEW
13:40 83.2 °F 61.5 °F 30.02 in East 6.0 mph 6.0 mph 48% 0.00 in WeatherDisplay:10.37 W/m2 FEW
13:45 83.6 °F 62.5 °F 30.02 in East 6.0 mph 6.0 mph 49% 0.00 in WeatherDisplay:10.37 W/m2 FEW
13:50 84.2 °F 62.9 °F 30.02 in East 6.0 mph 6.0 mph 49% 0.00 in WeatherDisplay:10.37 W/m2 FEW
13:55 84.4 °F 61.3 °F 30.01 in East 6.0 mph 6.0 mph 46% 0.00 in WeatherDisplay:10.37 W/m2 FEW
14:00 85.2 °F 60.2 °F 30.01 in East 6.0 mph 6.0 mph 43% 0.00 in WeatherDisplay:10.37 W/m2 FEW
14:05 85.6 °F 61.2 °F 30.01 in East 6.0 mph 6.0 mph 44% 0.00 in WeatherDisplay:10.37 W/m2 FEW
14:10 85.9 °F 60.8 °F 30.00 in East 6.0 mph 6.0 mph 43% 0.00 in WeatherDisplay:10.37 W/m2 FEW
14:15 86.5 °F 60.7 °F 30.00 in ENE 8.0 mph 8.0 mph 42% 0.00 in WeatherDisplay:10.37 W/m2 FEW
14:20 85.9 °F 60.8 °F 30.00 in ENE 8.0 mph 8.0 mph 43% 0.00 in WeatherDisplay:10.37 W/m2 FEW
14:25 85.4 °F 61.6 °F 30.00 in ENE 8.0 mph 8.0 mph 45% 0.00 in WeatherDisplay:10.37 W/m2 FEW
14:30 85.0 °F 59.3 °F 30.00 in ENE 8.0 mph 8.0 mph 42% 0.00 in WeatherDisplay:10.37 W/m2 FEW
14:35 84.7 °F 60.4 °F 29.99 in ENE 8.0 mph 8.0 mph 44% 0.00 in WeatherDisplay:10.37 W/m2 FEW
14:40 84.4 °F 60.7 °F 29.99 in ENE 8.0 mph 8.0 mph 45% 0.00 in WeatherDisplay:10.37 W/m2 FEW
14:45 84.5 °F 60.2 °F 29.99 in ENE 8.0 mph 8.0 mph 44% 0.00 in WeatherDisplay:10.37 W/m2 FEW
14:50 84.7 °F 61.0 °F 29.99 in ENE 8.0 mph 8.0 mph 45% 0.00 in WeatherDisplay:10.37 W/m2 FEW
14:55 84.7 °F 60.4 °F 29.98 in ENE 8.0 mph 8.0 mph 44% 0.00 in WeatherDisplay:10.37 W/m2 FEW
15:00 85.0 °F 61.3 °F 29.98 in ENE 8.0 mph 8.0 mph 45% 0.00 in WeatherDisplay:10.37 W/m2 FEW
15:05 84.9 °F 61.2 °F 29.98 in ENE 8.0 mph 8.0 mph 45% 0.00 in WeatherDisplay:10.37 W/m2 FEW
15:10 84.7 °F 60.4 °F 29.98 in ENE 8.0 mph 8.0 mph 44% 0.00 in WeatherDisplay:10.37 W/m2 FEW
15:15 84.6 °F 60.9 °F 29.97 in ENE 7.0 mph 8.0 mph 45% 0.00 in WeatherDisplay:10.37 W/m2 FEW
15:20 84.5 °F 61.4 °F 29.97 in East 7.0 mph 7.0 mph 46% 0.00 in WeatherDisplay:10.37 W/m2 FEW
15:25 84.2 °F 60.6 °F 29.97 in East 7.0 mph 7.0 mph 45% 0.00 in WeatherDisplay:10.37 W/m2 FEW
15:30 84.0 °F 62.2 °F 29.96 in East 7.0 mph 7.0 mph 48% 0.00 in WeatherDisplay:10.37 W/m2 FEW
15:35 83.9 °F 62.1 °F 29.96 in East 7.0 mph 7.0 mph 48% 0.00 in WeatherDisplay:10.37 W/m2 FEW
15:40 83.7 °F 61.9 °F 29.96 in East 7.0 mph 7.0 mph 48% 0.00 in WeatherDisplay:10.37 W/m2 FEW
15:45 83.4 °F 61.7 °F 29.96 in East 7.0 mph 7.0 mph 48% 0.00 in WeatherDisplay:10.37 W/m2 FEW
15:55 83.3 °F 62.1 °F 29.95 in East 7.0 mph 7.0 mph 49% 0.00 in WeatherDisplay:10.37 W/m2 FEW
16:00 83.3 °F 62.7 °F 29.95 in East 7.0 mph 7.0 mph 50% 0.00 in WeatherDisplay:10.37 W/m2 FEW
16:05 83.3 °F 62.1 °F 29.95 in East 7.0 mph 7.0 mph 49% 0.00 in WeatherDisplay:10.37 W/m2 FEW
16:10 83.3 °F 61.6 °F 29.95 in East 7.0 mph 7.0 mph 48% 0.00 in WeatherDisplay:10.37 W/m2 FEW
16:15 83.3 °F 61.6 °F 29.95 in East 5.0 mph 7.0 mph 48% 0.00 in WeatherDisplay:10.37 W/m2 FEW
16:20 83.4 °F 60.4 °F 29.95 in East 5.0 mph 5.0 mph 46% 0.00 in WeatherDisplay:10.37 W/m2 FEW
16:25 83.4 °F 61.7 °F 29.95 in East 5.0 mph 5.0 mph 48% 0.00 in WeatherDisplay:10.37 W/m2 FEW
16:30 83.4 °F 61.1 °F 29.95 in East 5.0 mph 5.0 mph 47% 0.00 in WeatherDisplay:10.37 W/m2 FEW
16:35 83.5 °F 59.9 °F 29.95 in East 5.0 mph 5.0 mph 45% 0.00 in WeatherDisplay:10.37 W/m2 FEW
16:40 83.4 °F 61.7 °F 29.95 in East 5.0 mph 5.0 mph 48% 0.00 in WeatherDisplay:10.37 W/m2 FEW
16:45 83.2 °F 60.9 °F 29.95 in East 5.0 mph 5.0 mph 47% 0.00 in WeatherDisplay:10.37 W/m2 FEW
16:50 83.1 °F 61.4 °F 29.94 in East 5.0 mph 5.0 mph 48% 0.00 in WeatherDisplay:10.37 W/m2 FEW
16:55 83.0 °F 61.3 °F 29.94 in East 5.0 mph 5.0 mph 48% 0.00 in WeatherDisplay:10.37 W/m2 FEW
17:00 82.7 °F 62.7 °F 29.94 in East 5.0 mph 5.0 mph 51% 0.00 in WeatherDisplay:10.37 W/m2 FEW
17:05 82.5 °F 62.0 °F 29.94 in East 5.0 mph 5.0 mph 50% 0.00 in WeatherDisplay:10.37 W/m2 FEW
17:10 82.3 °F 62.4 °F 29.94 in East 5.0 mph 5.0 mph 51% 0.00 in WeatherDisplay:10.37 W/m2 FEW
17:15 82.0 °F 62.1 °F 29.93 in NE 5.0 mph 5.0 mph 51% 0.00 in WeatherDisplay:10.37 W/m2 FEW
17:20 81.8 °F 60.2 °F 29.94 in NNE 5.0 mph 5.0 mph 48% 0.00 in WeatherDisplay:10.37 W/m2 FEW
17:25 81.8 °F 60.8 °F 29.93 in NNE 5.0 mph 5.0 mph 49% 0.00 in WeatherDisplay:10.37 W/m2 FEW
17:30 81.6 °F 62.3 °F 29.93 in NNE 5.0 mph 5.0 mph 52% 0.00 in WeatherDisplay:10.37 W/m2 FEW
17:40 80.9 °F 61.6 °F 29.93 in NNE 5.0 mph 5.0 mph 52% 0.00 in WeatherDisplay:10.37 W/m2 FEW
17:45 80.7 °F 62.5 °F 29.93 in NNE 5.0 mph 5.0 mph 54% 0.00 in WeatherDisplay:10.37 W/m2 FEW
17:50 80.3 °F 62.7 °F 29.93 in NNE 5.0 mph 5.0 mph 55% 0.00 in WeatherDisplay:10.37 W/m2 FEW
17:55 79.9 °F 62.8 °F 29.93 in NNE 5.0 mph 5.0 mph 56% 0.00 in WeatherDisplay:10.37 W/m2 FEW
18:00 79.8 °F 62.7 °F 29.93 in NNE 5.0 mph 5.0 mph 56% 0.00 in WeatherDisplay:10.37 W/m2 FEW
18:05 79.6 °F 62.0 °F 29.93 in NNE 5.0 mph 5.0 mph 55% 0.00 in WeatherDisplay:10.37 W/m2 FEW
18:10 79.4 °F 62.3 °F 29.93 in NNE 5.0 mph 5.0 mph 56% 0.00 in WeatherDisplay:10.37 W/m2 FEW
18:15 79.0 °F 62.5 °F 29.93 in NE 5.0 mph 5.0 mph 57% 0.00 in WeatherDisplay:10.37 W/m2 FEW
18:20 78.8 °F 62.8 °F 29.93 in ENE 5.0 mph 5.0 mph 58% 0.00 in WeatherDisplay:10.37 W/m2 FEW
18:25 78.6 °F 62.1 °F 29.93 in ENE 5.0 mph 5.0 mph 57% 0.00 in WeatherDisplay:10.37 W/m2 FEW
18:30 78.5 °F 62.5 °F 29.93 in ENE 5.0 mph 5.0 mph 58% 0.00 in WeatherDisplay:10.37 W/m2 FEW
18:35 78.2 °F 62.2 °F 29.93 in ENE 5.0 mph 5.0 mph 58% 0.00 in WeatherDisplay:10.37 W/m2 FEW
18:40 78.1 °F 62.6 °F 29.93 in ENE 5.0 mph 5.0 mph 59% 0.00 in WeatherDisplay:10.37 W/m2 FEW
18:45 77.8 °F 62.3 °F 29.93 in ENE 5.0 mph 5.0 mph 59% 0.00 in WeatherDisplay:10.37 W/m2 FEW
18:50 77.5 °F 62.6 °F 29.93 in ENE 5.0 mph 5.0 mph 60% 0.00 in WeatherDisplay:10.37 W/m2 FEW
18:55 77.3 °F 62.8 °F 29.93 in ENE 5.0 mph 5.0 mph 61% 0.00 in WeatherDisplay:10.37 W/m2 FEW
19:00 77.0 °F 62.5 °F 29.93 in ENE 5.0 mph 5.0 mph 61% 0.00 in WeatherDisplay:10.37 W/m2 FEW
19:05 76.8 °F 62.8 °F 29.93 in ENE 5.0 mph 5.0 mph 62% 0.00 in WeatherDisplay:10.37 W/m2 FEW
19:10 76.6 °F 62.6 °F 29.93 in ENE 5.0 mph 5.0 mph 62% 0.00 in WeatherDisplay:10.37 W/m2 FEW
19:15 76.4 °F 62.8 °F 29.93 in ENE 2.0 mph 5.0 mph 63% 0.00 in WeatherDisplay:10.37 W/m2 FEW
19:20 76.1 °F 63.1 °F 29.93 in ENE 2.0 mph 2.0 mph 64% 0.00 in WeatherDisplay:10.37 W/m2 FEW
19:25 75.9 °F 62.8 °F 29.93 in ENE 2.0 mph 2.0 mph 64% 0.00 in WeatherDisplay:10.37 W/m2 FEW
19:30 75.6 °F 63.0 °F 29.93 in ENE 2.0 mph 2.0 mph 65% 0.00 in WeatherDisplay:10.37 W/m2 FEW
19:35 75.3 °F 62.7 °F 29.93 in ENE 2.0 mph 2.0 mph 65% 0.00 in WeatherDisplay:10.37 W/m2 FEW
19:40 74.9 °F 62.3 °F 29.93 in ENE 2.0 mph 2.0 mph 65% 0.00 in WeatherDisplay:10.37 W/m2 FEW
19:45 74.6 °F 62.5 °F 29.93 in ENE 2.0 mph 2.0 mph 66% 0.00 in WeatherDisplay:10.37 W/m2 FEW
19:50 74.2 °F 62.6 °F 29.93 in ENE 2.0 mph 2.0 mph 67% 0.00 in WeatherDisplay:10.37 W/m2 FEW
19:55 74.0 °F 63.1 °F 29.93 in ENE 2.0 mph 2.0 mph 69% 0.00 in WeatherDisplay:10.37 W/m2 FEW
20:00 73.7 °F 62.5 °F 29.93 in ENE 2.0 mph 2.0 mph 68% 0.00 in WeatherDisplay:10.37 W/m2 FEW
20:05 73.5 °F 62.7 °F 29.93 in ENE 2.0 mph 2.0 mph 69% 0.00 in WeatherDisplay:10.37 W/m2 FEW
20:10 73.2 °F 62.5 °F 29.93 in ENE 2.0 mph 2.0 mph 69% 0.00 in WeatherDisplay:10.37 W/m2 FEW
20:15 73.1 °F 62.7 °F 29.93 in ENE 2.0 mph 2.0 mph 70% 0.00 in WeatherDisplay:10.37 W/m2 FEW
20:20 72.8 °F 62.5 °F 29.94 in ENE 2.0 mph 2.0 mph 70% 0.00 in WeatherDisplay:10.37 W/m2 FEW
20:25 72.6 °F 62.3 °F 29.94 in ENE 2.0 mph 2.0 mph 70% 0.00 in WeatherDisplay:10.37 W/m2 FEW
20:30 72.5 °F 62.9 °F 29.94 in ENE 2.0 mph 2.0 mph 72% 0.00 in WeatherDisplay:10.37 W/m2 FEW
20:40 72.1 °F 63.3 °F 29.94 in ENE 2.0 mph 2.0 mph 74% 0.00 in WeatherDisplay:10.37 W/m2 FEW
20:45 71.8 °F 63.1 °F 29.94 in ENE 2.0 mph 2.0 mph 74% 0.00 in WeatherDisplay:10.37 W/m2 FEW
20:50 71.6 °F 63.3 °F 29.94 in ENE 2.0 mph 2.0 mph 75% 0.00 in WeatherDisplay:10.37 W/m2 FEW
20:55 71.4 °F 63.4 °F 29.94 in ENE 2.0 mph 2.0 mph 76% 0.00 in WeatherDisplay:10.37 W/m2 FEW
21:00 71.2 °F 63.2 °F 29.95 in ENE 2.0 mph 2.0 mph 76% 0.00 in WeatherDisplay:10.37 W/m2 FEW
21:05 71.0 °F 63.4 °F 29.95 in ENE 2.0 mph 2.0 mph 77% 0.00 in WeatherDisplay:10.37 W/m2 FEW
21:10 70.9 °F 63.3 °F 29.95 in ENE 2.0 mph 2.0 mph 77% 0.00 in WeatherDisplay:10.37 W/m2 FEW
21:15 70.7 °F 63.5 °F 29.95 in ENE 2.0 mph 2.0 mph 78% 0.00 in WeatherDisplay:10.37 W/m2 CLR
21:20 70.5 °F 63.3 °F 29.95 in ENE 2.0 mph 2.0 mph 78% 0.00 in WeatherDisplay:10.37 W/m2 CLR
21:25 70.3 °F 63.2 °F 29.95 in ENE 2.0 mph 2.0 mph 78% 0.00 in WeatherDisplay:10.37 W/m2 CLR
21:30 70.2 °F 63.8 °F 29.95 in ENE 2.0 mph 2.0 mph 80% 0.00 in WeatherDisplay:10.37 W/m2 CLR
21:40 70.0 °F 63.5 °F 29.96 in ENE 2.0 mph 2.0 mph 80% 0.00 in WeatherDisplay:10.37 W/m2 CLR
21:45 69.9 °F 63.4 °F 29.96 in ENE 2.0 mph 2.0 mph 80% 0.00 in WeatherDisplay:10.37 W/m2 CLR
21:50 69.8 °F 63.7 °F 29.96 in ENE 2.0 mph 2.0 mph 81% 0.00 in WeatherDisplay:10.37 W/m2 CLR
21:55 69.7 °F 63.6 °F 29.96 in ENE 2.0 mph 2.0 mph 81% 0.00 in WeatherDisplay:10.37 W/m2 CLR
22:00 69.6 °F 63.5 °F 29.96 in ENE 2.0 mph 2.0 mph 81% 0.00 in WeatherDisplay:10.37 W/m2 CLR
22:05 69.5 °F 63.7 °F 29.96 in ENE 2.0 mph 2.0 mph 82% 0.00 in WeatherDisplay:10.37 W/m2 CLR
22:10 69.2 °F 63.1 °F 29.96 in ENE 2.0 mph 2.0 mph 81% 0.00 in WeatherDisplay:10.37 W/m2 CLR
22:15 68.9 °F 63.2 °F 29.96 in ENE 2.0 mph 2.0 mph 82% 0.00 in WeatherDisplay:10.37 W/m2 CLR
22:20 68.8 °F 63.1 °F 29.96 in ENE 2.0 mph 2.0 mph 82% 0.00 in WeatherDisplay:10.37 W/m2 CLR
22:25 68.7 °F 63.4 °F 29.96 in ENE 2.0 mph 2.0 mph 83% 0.00 in WeatherDisplay:10.37 W/m2 CLR
22:30 68.6 °F 63.3 °F 29.97 in ENE 2.0 mph 2.0 mph 83% 0.00 in WeatherDisplay:10.37 W/m2 CLR
22:40 68.5 °F 63.1 °F 29.97 in ENE 2.0 mph 2.0 mph 83% 0.00 in WeatherDisplay:10.37 W/m2 CLR
22:45 68.4 °F 63.4 °F 29.97 in ENE 2.0 mph 2.0 mph 84% 0.00 in WeatherDisplay:10.37 W/m2 CLR
22:50 68.3 °F 63.3 °F 29.96 in ENE 2.0 mph 2.0 mph 84% 0.00 in WeatherDisplay:10.37 W/m2 CLR
22:55 68.2 °F 63.2 °F 29.96 in ENE 2.0 mph 2.0 mph 84% 0.00 in WeatherDisplay:10.37 W/m2 CLR
23:00 68.1 °F 63.1 °F 29.97 in ENE 2.0 mph 2.0 mph 84% 0.00 in WeatherDisplay:10.37 W/m2 CLR
23:10 67.9 °F 63.2 °F 29.97 in ENE 2.0 mph 2.0 mph 85% 0.00 in WeatherDisplay:10.37 W/m2 CLR
23:20 67.7 °F 63.0 °F 29.97 in West 2.0 mph 2.0 mph 85% 0.00 in WeatherDisplay:10.37 W/m2 CLR
23:25 67.6 °F 62.9 °F 29.96 in West 2.0 mph 2.0 mph 85% 0.00 in WeatherDisplay:10.37 W/m2 CLR
23:30 67.5 °F 62.8 °F 29.96 in West 2.0 mph 2.0 mph 85% 0.00 in WeatherDisplay:10.37 W/m2 CLR
23:35 67.4 °F 62.7 °F 29.97 in West 2.0 mph 2.0 mph 85% 0.00 in WeatherDisplay:10.37 W/m2 CLR
23:40 67.3 °F 62.6 °F 29.97 in West 2.0 mph 2.0 mph 85% 0.00 in WeatherDisplay:10.37 W/m2 CLR
23:45 67.3 °F 62.6 °F 29.97 in West 2.0 mph 2.0 mph 85% 0.00 in WeatherDisplay:10.37 W/m2 CLR
23:50 67.2 °F 62.9 °F 29.97 in West 2.0 mph 2.0 mph 86% 0.00 in WeatherDisplay:10.37 W/m2 CLR
23:55 67.1 °F 62.8 °F 29.97 in West 2.0 mph 2.0 mph 86% 0.00 in WeatherDisplay:10.37 W/m2 CLR
Piedmont Bend
Compliments of Weather Underground - 4 mb